FW3958 Weather Reports


time (UTC)temp
C
wind
direction
speed
KPH
gust
KPH
rain 1hr
cm
rain 24hr
cm
rain mn
cm
humidity
%
barometer
mb
20260510120059 10 220 0.0 0.0 0.00 0.00 0.00 100 1020.5
20260510114559 9 220 0.0 0.0 0.00 0.00 0.00 100 1020.7
20260510113103 9 220 0.0 0.0 0.00 0.00 0.00 100 1021.3
20260510111609 9 220 0.0 0.0 0.00 0.00 0.00 100 1021.2
20260510110054 8 220 0.0 0.0 0.00 0.00 0.00 100 1021.1
20260510104553 9 220 0.0 0.0 0.00 0.00 0.00 100 1020.9
20260510103052 9 220 0.0 0.0 0.00 0.00 0.00 100 1020.6
20260510101553 9 220 0.0 0.0 0.00 0.00 0.00 100 1020.7
20260510100053 9 231 0.0 0.0 0.00 0.00 0.00 100 1020.6
20260510094551 8 231 0.0 0.0 0.00 0.00 0.00 100 1021.0
20260510093101 8 231 0.0 0.0 0.00 0.00 0.00 100 1020.6
20260510091548 9 231 0.0 0.0 0.00 0.00 0.00 100 1020.5
20260510090055 8 231 0.0 0.0 0.00 0.00 0.00 100 1020.4
20260510084544 8 231 0.0 0.0 0.00 0.00 0.00 100 1020.5
20260510083050 8 231 0.0 0.0 0.00 0.00 0.00 100 1020.7
20260510081555 8 231 0.0 0.0 0.00 0.00 0.00 100 1020.7
20260510080046 9 231 0.0 0.0 0.00 0.00 0.00 100 1020.7
20260510074538 9 231 0.0 0.0 0.00 0.00 0.00 100 1020.3
20260510073035 9 231 0.0 3.2 0.00 0.00 0.00 100 1020.4
20260510071534 9 230 0.0 0.0 0.00 0.00 0.00 100 1020.2
20260510070032 10 230 0.0 1.6 0.00 0.00 0.00 99 1020.2
20260510064534 10 230 0.0 4.8 0.00 0.00 0.00 99 1020.3
20260510063031 10 284 0.0 3.2 0.00 0.00 0.00 98 1020.1
20260510061531 11 284 0.0 1.6 0.00 0.00 0.00 97 1020.1
20260510060029 11 284 0.0 6.4 0.00 0.00 0.00 96 1019.9
20260510054530 11 330 0.0 3.2 0.00 0.00 0.00 96 1020.1
20260510053028 11 334 3.2 9.7 0.00 0.00 0.00 96 1020.2
20260510051529 12 305 3.2 9.7 0.00 0.00 0.00 96 1020.1
20260510050028 12 312 1.6 11.3 0.00 0.00 0.00 95 1020.0
20260510044534 12 290 4.8 11.3 0.00 0.00 0.00 95 1019.9
20260510043028 12 307 3.2 9.7 0.00 0.00 0.00 95 1019.8
20260510041526 12 291 4.8 12.9 0.00 0.00 0.00 94 1019.5
20260510040027 13 298 3.2 11.3 0.00 0.00 0.00 93 1019.2
20260510034526 13 317 3.2 9.7 0.00 0.00 0.00 93 1018.9
20260510033026 15 213 0.0 3.2 0.00 0.00 0.00 91 1018.7
20260510031525 15 207 1.6 6.4 0.00 0.00 0.00 91 1018.5
20260510030034 15 319 1.6 6.4 0.00 0.00 0.00 89 1018.4
20260510024525 15 328 0.0 6.4 0.00 0.00 0.00 89 1018.4
20260510023023 16 346 0.0 4.8 0.00 0.00 0.00 88 1018.6
20260510021527 16 352 1.6 6.4 0.00 0.00 0.00 86 1018.4
20260510020023 16 321 1.6 6.4 0.00 0.00 0.00 87 1018.5
20260510014519 16 9 3.2 14.5 0.00 0.00 0.00 84 1018.6
20260510013018 17 310 6.4 11.3 0.00 0.00 0.00 84 1018.6
20260510011517 18 317 8.0 12.9 0.00 0.00 0.00 81 1018.7
20260510010017 19 4 6.4 14.5 0.00 0.00 0.00 80 1018.7
20260510004515 18 350 4.8 11.3 0.00 0.00 0.00 79 1018.7
20260510003023 19 322 3.2 12.9 0.00 0.00 0.00 78 1018.7
20260510001511 19 342 6.4 14.5 0.00 0.00 0.00 77 1018.7
20260510000012 20 342 4.8 12.9 0.00 0.00 0.00 76 1018.9
20260509234513 20 315 6.4 12.9 0.00 0.00 0.00 74 1019.1
20260509233011 21 11 3.2 14.5 0.00 0.00 0.00 74 1019.2
20260509231504 21 309 4.8 14.5 0.00 0.00 0.00 67 1019.4
20260509230001 20 13 6.4 12.9 0.00 0.00 0.00 68 1019.6
20260509224602 20 324 3.2 12.9 0.00 0.00 0.00 68 1019.8
20260509223059 20 299 9.7 14.5 0.00 0.00 0.00 66 1019.8
20260509221556 20 14 4.8 16.1 0.00 0.00 0.00 67 1020.1
20260509220051 20 308 4.8 14.5 0.00 0.00 0.00 69 1020.4
20260509214546 19 328 6.4 14.5 0.00 0.00 0.00 69 1020.2
20260509213048 19 332 4.8 12.9 0.00 0.00 0.00 72 1020.5
20260509211549 18 320 3.2 14.5 0.00 0.00 0.00 76 1020.8
20260509210039 19 329 6.4 14.5 0.00 0.00 0.00 74 1020.8
20260509204536 19 345 11.3 17.7 0.00 0.00 0.00 77 1021.2
20260509203039 18 20 6.4 12.9 0.00 0.00 0.00 74 1021.4
20260509201531 18 305 4.8 16.1 0.00 0.00 0.00 76 1021.4
20260509200028 18 338 6.4 16.1 0.00 0.00 0.00 79 1021.6
20260509194529 18 270 11.3 16.1 0.00 0.00 0.00 80 1021.5
20260509193030 18 299 8.0 12.9 0.00 0.00 0.00 79 1021.5
20260509191524 17 346 4.8 12.9 0.00 0.00 0.00 81 1021.6
20260509190020 17 15 4.8 12.9 0.00 0.00 0.00 83 1022.0
20260509184526 17 300 6.4 14.5 0.00 0.00 0.00 84 1022.2
20260509183018 16 332 6.4 12.9 0.00 0.00 0.00 84 1022.5
20260509181512 16 357 4.8 12.9 0.00 0.00 0.00 87 1022.4
20260509180009 15 22 4.8 12.9 0.00 0.00 0.00 88 1022.5
20260509174507 15 321 6.4 12.9 0.00 0.00 0.00 88 1022.6
20260509173006 15 301 4.8 11.3 0.00 0.00 0.00 89 1022.6
20260509171505 15 317 4.8 11.3 0.00 0.00 0.00 88 1022.6
20260509170004 15 338 4.8 12.9 0.00 0.00 0.00 87 1022.5
20260509164502 15 7 1.6 6.4 0.00 0.00 0.00 90 1022.6
20260509163058 14 338 0.0 3.2 0.00 0.00 0.00 91 1022.8
20260509161558 13 68 1.6 6.4 0.00 0.00 0.00 94 1022.6
20260509160053 12 26 1.6 8.0 0.00 0.00 0.00 94 1022.7
20260509154550 12 104 0.0 4.8 0.00 0.00 0.00 98 1022.7
20260509153045 11 16 0.0 4.8 0.00 0.00 0.00 100 1023.3
20260509151544 10 15 1.6 6.4 0.00 0.00 0.00 100 1023.3
20260509150043 10 259 0.0 0.0 0.00 0.00 0.00 100 1023.3
20260509144543 8 259 0.0 0.0 0.00 0.00 0.00 100 1023.3
20260509143042 7 259 0.0 0.0 0.00 0.00 0.00 100 1023.6
20260509141541 7 259 0.0 0.0 0.00 0.00 0.00 100 1023.5
20260509140042 6 259 0.0 0.0 0.00 0.00 0.00 100 1023.5
20260509134540 6 259 0.0 0.0 0.00 0.00 0.00 100 1023.2
20260509133039 6 259 0.0 0.0 0.00 0.00 0.00 100 1023.3
20260509131541 6 259 0.0 0.0 0.00 0.00 0.00 100 1023.5
20260509130050 6 259 0.0 0.0 0.00 0.00 0.00 100 1023.5
20260509124539 6 259 0.0 0.0 0.00 0.00 0.00 100 1023.7
20260509123033 6 259 0.0 0.0 0.00 0.00 0.00 100 1023.7
20260509121530 6 259 0.0 0.0 0.00 0.00 0.00 100 1023.9